CW5439 Weather Reports


Display with metric or nautical units.
time (UTC)temp
F
wind
direction
speed
MPH
gust
MPH
rain 1hr
in
rain 24hr
in
rain mn
in
humidity
%
barometer
mb
20260504081705 53 251 5.0 12.0 0.00 0.02 0.02 83 1013.1
20260504081205 52 265 5.0 10.0 0.00 0.02 0.02 82 1013.0
20260504080704 53 281 5.0 12.0 0.00 0.02 0.02 86 1013.0
20260504070205 48 254 4.0 8.0 0.00 0.02 0.02 93 1012.9
20260504060205 46 206 4.0 6.0 0.00 0.02 0.02 94 1012.7
20260504050205 46 227 2.0 4.0 0.00 0.02 0.02 94 1012.8
20260504045705 46 219 2.0 4.0 0.00 0.02 0.02 94 1012.8
20260504045206 46 221 2.0 4.0 0.00 0.02 0.02 94 1012.9
20260504044205 46 202 2.0 4.0 0.00 0.02 0.02 94 1012.8
20260504043705 45 194 2.0 4.0 0.00 0.02 0.02 94 1012.9
20260504043205 46 184 2.0 4.0 0.00 0.03 0.02 94 1012.8
20260504042706 45 168 2.0 4.0 0.00 0.03 0.02 94 1012.9
20260504042205 45 196 2.0 4.0 0.00 0.03 0.02 94 1012.9
20260504041205 45 186 1.0 4.0 0.00 0.04 0.02 94 1012.9
20260504040705 45 184 1.0 2.0 0.00 0.04 0.02 94 1012.9
20260504040205 45 113 1.0 2.0 0.00 0.04 0.02 94 1012.9
20260504035705 45 113 0.0 1.0 0.00 0.04 0.02 94 1012.9
20260504035206 45 113 0.0 1.0 0.00 0.05 0.02 94 1013.0
20260504034705 45 113 0.0 1.0 0.00 0.05 0.02 94 1013.1
20260504034206 45 113 0.0 0.0 0.00 0.05 0.02 94 1013.1
20260504033707 45 113 0.0 1.0 0.00 0.05 0.02 94 1013.2
20260504033205 45 113 0.0 1.0 0.00 0.06 0.02 93 1013.1
20260504032708 45 113 0.0 1.0 0.00 0.06 0.02 93 1013.1
20260504031705 45 113 0.0 0.0 0.00 0.06 0.02 93 1013.2
20260504031205 45 113 0.0 1.0 0.00 0.06 0.02 93 1013.1
20260504030206 45 113 0.0 0.0 0.00 0.07 0.02 93 1013.1
20260504025705 45 113 0.0 0.0 0.00 0.08 0.02 93 1013.1
20260504025205 45 113 0.0 0.0 0.00 0.08 0.02 93 1013.1
20260504024705 45 113 0.0 0.0 0.00 0.09 0.02 93 1013.1
20260504024205 45 113 0.0 0.0 0.01 0.09 0.02 93 1013.0
20260504023704 45 113 0.0 0.0 0.01 0.09 0.02 93 1013.1
20260504023205 45 113 0.0 1.0 0.01 0.10 0.02 93 1013.1
20260504022706 45 113 0.0 1.0 0.01 0.10 0.02 93 1013.2
20260504021205 45 113 0.0 1.0 0.01 0.11 0.02 93 1013.1
20260504020205 45 113 0.0 1.0 0.01 0.11 0.02 93 1013.1
20260504015705 45 113 0.0 1.0 0.01 0.12 0.02 93 1013.1
20260504015206 45 113 0.0 1.0 0.01 0.12 0.02 93 1013.2
20260504014705 45 113 0.0 0.0 0.01 0.12 0.02 93 1013.2
20260504014205 45 113 0.0 0.0 0.00 0.11 0.01 93 1013.1
20260504013705 45 113 0.0 0.0 0.00 0.11 0.01 93 1013.2
20260504013205 45 113 0.0 0.0 0.00 0.12 0.01 93 1013.1
20260504012705 45 113 0.0 0.0 0.00 0.12 0.01 93 1013.1
20260504012206 45 113 0.0 1.0 0.00 0.13 0.01 93 1013.0
20260504011705 45 113 0.0 1.0 0.00 0.13 0.01 93 1013.0
20260504010705 45 113 0.0 2.0 0.00 0.13 0.01 93 1013.1
20260504010206 45 113 0.0 2.0 0.00 0.13 0.01 93 1013.1
20260504005205 45 113 1.0 2.0 0.00 0.13 0.01 92 1013.0
20260504004705 45 113 0.0 2.0 0.00 0.13 0.01 92 1013.0
20260504004207 45 113 0.0 2.0 0.01 0.13 0.01 92 1012.9
20260504003705 45 113 0.0 2.0 0.01 0.13 0.01 92 1012.9
20260504003205 45 113 0.0 3.0 0.01 0.13 0.01 92 1013.0
20260504002705 45 113 1.0 3.0 0.01 0.14 0.01 92 1013.0
20260504002205 45 113 1.0 2.0 0.01 0.14 0.01 92 1013.0
20260504001705 45 113 0.0 2.0 0.01 0.14 0.01 92 1013.0
20260504001208 45 113 0.0 2.0 0.01 0.14 0.01 92 1013.0
20260504000706 45 113 0.0 2.0 0.01 0.14 0.01 92 1012.9
20260504000205 45 113 1.0 2.0 0.01 0.14 0.01 92 1013.0
20260503235705 45 113 1.0 2.0 0.01 0.14 0.01 92 1013.0
20260503235206 45 113 0.0 1.0 0.01 0.14 0.01 92 1013.1
20260503234705 45 113 0.0 1.0 0.01 0.14 0.01 92 1013.1
20260503234207 45 113 0.0 0.0 0.00 0.13 0.00 92 1013.1
20260503233708 45 113 0.0 0.0 0.00 0.13 0.00 91 1013.1
20260503233205 45 113 0.0 0.0 0.00 0.13 0.00 91 1013.1
20260503232705 45 113 0.0 1.0 0.00 0.13 0.00 91 1013.1
20260503232206 45 113 0.0 1.0 0.00 0.13 0.00 91 1013.2
20260503231717 45 113 0.0 1.0 0.00 0.13 0.00 91 1013.1
20260503231223 45 113 0.0 1.0 0.00 0.13 0.00 91 1013.1
20260503230705 45 113 0.0 1.0 0.00 0.13 0.00 91 1013.1
20260503230207 45 113 0.0 0.0 0.00 0.13 0.13 91 1013.1
20260503225705 45 113 0.0 1.0 0.00 0.13 0.13 91 1013.1
20260503225205 45 113 0.0 1.0 0.00 0.13 0.13 91 1013.0
20260503224205 45 113 0.0 1.0 0.00 0.13 0.13 91 1013.0
20260503223205 45 113 0.0 1.0 0.00 0.13 0.13 91 1013.0
20260503222704 45 113 0.0 1.0 0.00 0.13 0.13 91 1013.0
20260503222205 45 113 0.0 2.0 0.00 0.13 0.13 91 1013.0
20260503221205 45 113 0.0 1.0 0.00 0.13 0.13 91 1012.9
20260503220709 45 113 0.0 2.0 0.00 0.13 0.13 91 1013.0
20260503220205 45 113 0.0 2.0 0.00 0.13 0.13 90 1012.9
20260503215704 45 113 0.0 2.0 0.00 0.13 0.13 90 1012.9
20260503215206 45 113 0.0 3.0 0.00 0.13 0.13 91 1013.0
20260503213206 45 113 2.0 4.0 0.00 0.13 0.13 90 1013.0
20260503212205 45 115 0.0 2.0 0.00 0.13 0.13 90 1013.0
20260503211205 45 110 0.0 2.0 0.00 0.13 0.13 90 1013.2
20260503210705 45 115 0.0 2.0 0.00 0.13 0.13 90 1013.2
20260503210206 45 115 0.0 4.0 0.00 0.13 0.13 90 1013.2
20260503205705 45 115 1.0 4.0 0.00 0.13 0.13 90 1013.2
20260503205209 45 115 2.0 6.0 0.00 0.13 0.13 90 1013.0
20260503204704 45 101 2.0 6.0 0.00 0.13 0.13 89 1013.0
20260503204205 45 103 3.0 6.0 0.00 0.13 0.13 90 1013.0
20260503203705 45 105 3.0 5.0 0.00 0.13 0.13 89 1013.0
20260503202705 45 118 2.0 3.0 0.00 0.13 0.13 89 1013.0
20260503202206 45 101 1.0 3.0 0.00 0.13 0.13 89 1013.1
20260503201705 45 80 1.0 4.0 0.00 0.13 0.13 89 1013.1
20260503201205 45 95 1.0 4.0 0.00 0.13 0.13 89 1013.0
20260503200705 46 115 2.0 4.0 0.00 0.13 0.13 88 1012.9
20260503200205 46 99 2.0 4.0 0.00 0.13 0.13 88 1012.9
20260503195706 46 121 2.0 4.0 0.00 0.13 0.13 88 1012.8
20260503195205 46 111 2.0 4.0 0.00 0.13 0.13 88 1012.7
20260503194705 46 103 2.0 5.0 0.00 0.13 0.13 88 1012.6
20260503194209 46 123 2.0 5.0 0.00 0.13 0.13 88 1012.6
20260503193705 46 132 3.0 5.0 0.00 0.13 0.13 87 1012.6
20260503193205 46 132 3.0 7.0 0.00 0.13 0.13 87 1012.6
20260503192705 46 108 3.0 7.0 0.00 0.13 0.13 87 1012.5
20260503192206 46 111 3.0 6.0 0.00 0.13 0.13 87 1012.5
20260503191206 46 129 3.0 6.0 0.00 0.13 0.13 86 1012.5
20260503190706 46 135 2.0 4.0 0.00 0.13 0.13 86 1012.5
20260503185705 47 111 2.0 5.0 0.00 0.13 0.13 85 1012.5
20260503185206 47 98 2.0 7.0 0.00 0.13 0.13 85 1012.6
20260503183705 47 122 3.0 8.0 0.00 0.13 0.13 85 1012.4
20260503183207 47 121 4.0 8.0 0.00 0.13 0.13 85 1012.3
20260503182706 47 119 4.0 7.0 0.00 0.13 0.13 85 1012.2
20260503182206 48 117 4.0 8.0 0.00 0.13 0.13 85 1012.3
20260503181706 48 98 4.0 8.0 0.00 0.13 0.13 84 1012.4
20260503181205 48 123 4.0 8.0 0.00 0.13 0.13 84 1012.4
20260503180705 48 110 4.0 8.0 0.00 0.13 0.13 84 1012.4
20260503180205 48 103 4.0 8.0 0.00 0.13 0.13 85 1012.5
20260503175205 48 110 4.0 9.0 0.00 0.13 0.13 85 1012.4
20260503174705 47 124 4.0 9.0 0.00 0.13 0.13 85 1012.3
20260503174205 47 132 4.0 9.0 0.00 0.13 0.13 85 1012.2
20260503173705 47 101 4.0 9.0 0.00 0.13 0.13 84 1012.2
20260503173205 47 105 4.0 9.0 0.00 0.13 0.13 84 1012.3
20260503172705 47 136 5.0 8.0 0.00 0.13 0.13 84 1012.3
20260503172206 48 138 5.0 8.0 0.00 0.13 0.13 84 1012.3
20260503171705 48 136 5.0 7.0 0.00 0.13 0.13 84 1012.4
20260503171206 48 154 4.0 7.0 0.00 0.13 0.13 84 1012.4
20260503170205 48 141 3.0 7.0 0.00 0.13 0.13 84 1012.5
20260503150205 48 59 5.0 12.0 0.00 0.13 0.13 83 1012.5
20260503140205 47 75 6.0 11.0 0.00 0.13 0.13 85 1012.9
20260503131205 46 36 6.0 12.0 0.00 0.13 0.13 88 1013.1
20260503130704 46 37 6.0 12.0 0.00 0.13 0.13 88 1013.1
20260503130205 46 69 6.0 12.0 0.00 0.13 0.13 88 1013.0
20260503120205 46 34 6.0 13.0 0.00 0.13 0.13 91 1013.2
20260503110705 46 46 7.0 14.0 0.00 0.13 0.13 93 1013.2
20260503110206 46 65 8.0 14.0 0.00 0.13 0.13 93 1013.2
20260503090205 45 53 7.0 12.0 0.00 0.13 0.13 95 1013.2